Resultados

1500 Electronico
Fecha Serie Viento Presión Humedad Temperatura
28-10-2017 Final_A
Puesto Andanivel Nombre Dia Mes Año Pais Marca
01 Gallo Nancy Soledad 19 9 1980 EMACO ASCER 4.36.68 -
02 Zapata Alfonzo Macarena 16 12 2000 EMASR - 4.42.08 -
03 Ortiz Micaela 30 12 1997 ECOTF ARDA 4.42.13 -
04 Calahonra Micaela 20 6 1995 CSDCF - 4.43.77 -
05 Ayala Karen 21 11 1994 CADAF 4.49.60 -
06 Jaureguy Angel Aldina 31 12 1986 LÑFA - 4.53.70 -
07 Escudero Martina 6 12 1996 EMCDC - 4.59.38 -
08 Zeberio Paula Edith 30 1 1990 QUIRO - 5.00.25 -
09 Tesuri Barbara Elizabeth 11 5 1998 EBFAM - 5.00.64 -
10 Cirelli Marisol 24 8 1974 ETFAM - 5.00.98 -
11 Fuentealba Karina Natalia 17 12 1978 FCMAX - 5.01.25 -
12 Amerise Maria Jose 3 4 1986 FCMAX 5.07.76 -
13 Vinas Lorena Carina 17 1 1981 LÑFA - 5.10.22 -
14 Acosta Florencia 27 7 1994 MDLDZ 5.10.76 -
15 Baabour Sabrina Rosa Jesica 9 11 1982 AAY - 5.12.24 -
16 Fernandez Marina 4 1 1975 MDLDZ - 5.12.99 -
17 Rougier Guadalupe 19 4 1990 RC - 5.15.99
18 Motta Silvina 5 9 1971 EBFAM 5.16.36 -
19 Minniti vanina 21 3 1988 SAVBF - 5.17.54 -
20 Ciani Victoria 26 3 1983 QUIRO - 5.19.99 -
21 Fragueiro Sofia 5 7 1989 CACHI - 5.20.14 -
22 Arballo Lara 11 5 2000 ATERU ARDA 5.20.79 -
23 Kruk Carolina 23 3 1990 AAY - 5.23.13 -
24 Gonzalez Martos Carolina 23 6 1993 AAMTE - 5.25.25 -
25 Cristofano Silvina 4 4 1987 FCMAX - 5.28.38 -
26 Fama Estefania 28 1 1986 L�FA 5.31.21 -
27 Conde Carla Cecilia 22 7 1992 MDLDZ - 5.33.82 -
28 Gonzalez Maffeo Janice 11 12 1999 AAY - 5.40.58 -
29 Casas Analia 10 11 1983 FCMAX - 5.42.85 -
30 Sarah Pueyrredon 15 5 1990 AAMTE - 5.49.42 -
31 Maria Antonieta canteros 22 10 1979 MUAVE - 6.00.95 -
32 Villegas Maria Julieta 24 8 1993 AAMTE - 6.02.42 -
33 Alvarez Abish 21 5 2000 UA - 6.19.78 -
34 Junco Florencia 13 9 2000 FCMAX - 6.36.07 -
99 Antico Cecilia Fernanda 10 1 1976 LÑFA - DNS
99 Florentin Cristian 24 4 1982 AAY - DNS
99 Menendez Analia 21 1 1993 L�FA DNS
99 Zapata Brisa 23 9 1999 EMACO ASCER DNF